Flag for U.S.A. Weather past 2 weeks in Bismarck, North Dakota, U.S.A.

Now
75 °F

Sunny.


Feels Like: 77 °F
Forecast: 62 / 84 °F
Wind: 13 mph from South

Location: Bismarck Municipal Airport

Current Time: Aug 20, 2014 at 12:11:13 PM

Latest Report: Aug 20, 2014 at 10:52 AM


Visibility: 10 mi

Pressure: 29.70 "Hg

Humidity: 71%

Dew point: 65 °F

Location of BismarckLocation

Historic Weather in Bismarck — Graph

°F

Bismarck temperature yesterday

Maximum temperature yesterday: 87 °F (at 3:52 PM)
Minimum temperature yesterday: 56 °F (at 6:52 AM)
Average temperature yesterday: 73 °F

Past Weeks' High & Low Weather Summary

 TemperatureHumidityPressure
High90 °F (Aug 13, 2:52 PM)97% (Aug 7, 10:52 PM)30.28 "Hg (Aug 7, 10:52 PM)
Low51 °F (Aug 11, 6:52 AM)33% (Aug 12, 4:52 PM)29.67 "Hg (Aug 20, 3:52 AM)
Average71 °F74%29.96 "Hg
* Reported Aug 5 10:52 AM — Aug 20 10:52 AM, Bismarck, Weather by CustomWeather, © 2014

Note: Actual official high and low records may vary slightly from our data, if they occured in-between our weather recording intervals... More about our weather records

Advertising

Bismarck weather history for previous 24 hours

 ConditionsComfort  
Time TempWeatherWind HumidityBarometerVisibility
10:52 AM
Aug 20
75 °FSunny.13 mph71%29.70 "Hg10 mi
9:52 AM74 °FSunny.9 mph74%29.69 "Hg10 mi
8:52 AM69 °FSunny.12 mph84%29.70 "Hg10 mi
7:52 AM66 °FSunny.8 mph87%29.69 "Hg10 mi
6:52 AM62 °FClear.9 mph93%29.69 "Hg9 mi
5:52 AM65 °FClear.9 mph87%29.67 "Hg10 mi
4:52 AM66 °FClear.7 mph84%29.67 "Hg10 mi
3:52 AM67 °FClear.8 mph85%29.67 "Hg10 mi
2:52 AM68 °FClear.7 mph78%29.68 "Hg10 mi
1:52 AM69 °FClear.7 mph76%29.69 "Hg10 mi
12:52 AM69 °FClear.5 mph76%29.70 "Hg10 mi
11:52 PM
Aug 19
69 °FClear.6 mph79%29.70 "Hg10 mi
10:52 PM69 °FClear.6 mph81%29.70 "Hg10 mi
9:52 PM72 °FClear.7 mph76%29.70 "Hg10 mi
8:52 PM74 °FSunny.8 mph71%29.70 "Hg10 mi
7:52 PM79 °FSunny.6 mph65%29.70 "Hg10 mi
6:52 PM85 °FSunny.7 mph46%29.70 "Hg10 mi
5:52 PM87 °FSunny.8 mph42%29.71 "Hg10 mi
4:52 PM87 °FSunny.8 mph39%29.72 "Hg10 mi
3:52 PM87 °FSunny.5 mph40%29.72 "Hg10 mi
2:52 PM86 °FPartly sunny.3 mph45%29.73 "Hg10 mi
1:52 PM85 °FSunny.6 mph46%29.73 "Hg10 mi
12:52 PM84 °FSunny.5 mph49%29.75 "Hg10 mi
Weather by CustomWeather, © 2014

See weather overviewHow to use our weather pages